This is the latest recevied weather packets stored in our database for station/object DL2ARH-7. If no packets are shown the sender has not sent any weather packets the latest 1 day(s).
| Time | Temp. | Humidity | Pressure | Rain* | Wind** | Luminosity | Snow |
|---|---|---|---|---|---|---|---|
| 1778000624 | 16.67° C | 75% | 1006.4 hPa | 0 mm | 0 m/s | - | - |
| 1778000558 | 16.67° C | 74% | 1006.3 hPa | 0 mm | 0 m/s | - | - |
| 1778000492 | 16.67° C | 75% | 1006.3 hPa | 0 mm | 0 m/s | - | - |
| 1778000425 | 45.56° C | 75% | 1006.4 hPa | 0 mm | 0 m/s | - | - |
| 1778000360 | 46.11° C | 83% | 1006.4 hPa | 0 mm | 0 m/s | - | - |
| 1778000228 | 16.67° C | 73% | 1006.5 hPa | 0 mm | 0 m/s | - | - |
| 1778000159 | 16.67° C | 73% | 1006.4 hPa | 0 mm | 0 m/s | - | - |
| 1778000092 | 16.67° C | 81% | 1006.5 hPa | 0 mm | 0 m/s | - | - |
| 1778000027 | 16.67° C | 73% | 1006.7 hPa | 0 mm | 0 m/s | - | - |
| 1777999959 | 17.22° C | 73% | 1006.6 hPa | 0 mm | 0 m/s | - | - |
| 1777999893 | 17.22° C | 73% | 1006.7 hPa | 0 mm | 0 m/s | - | - |
| 1777999762 | 16.67° C | 72% | 1006.7 hPa | 0 mm | 0 m/s | - | - |
| 1777999694 | 16.67° C | 72% | 1006.6 hPa | 0 mm | 0 m/s | - | - |
| 1777999632 | 16.67° C | 72% | 1006.7 hPa | 0 mm | 0 m/s | - | - |
| 1777999560 | 17.22° C | 72% | 1006.7 hPa | 0 mm | 0 m/s | - | - |
| 1777999495 | 17.22° C | 71% | 1006.7 hPa | 0 mm | 0 m/s | - | - |
| 1777999427 | 17.22° C | 71% | 1006.7 hPa | 0 mm | 0 m/s | - | - |
| 1777999361 | 17.22° C | 71% | 1006.6 hPa | 0 mm | 0 m/s | - | - |
| 1777999294 | 16.67° C | 71% | 1006.7 hPa | 0 mm | 0 m/s | - | - |
| 1777999228 | 17.22° C | 71% | 1006.7 hPa | 0 mm | 0 m/s | - | - |
| 1777999163 | 17.22° C | 71% | 1006.7 hPa | 0 mm | 0 m/s | - | - |
| 1777999096 | 17.22° C | 70% | 1006.7 hPa | 0 mm | 0 m/s | - | - |
| 1777999028 | 17.22° C | 70% | 1006.8 hPa | 0 mm | 0 m/s | - | - |
| 1777998962 | 17.22° C | 70% | 1006.6 hPa | 0 mm | 0 m/s | - | - |
| 1777998895 | 17.22° C | 70% | 1006.6 hPa | 0 mm | 0 m/s | - | - |
* Rain latest hour (hover to see other rain measurements)
** Current wind speed in m/s (hover to see current wind gust speed)